Location: Beneden-Haastrecht
(52.0012°N, 4.7557°E)
Time: 14:38:58
(UTC+00:00)

Cosmos 2058 Rocket - Pass Details

Date: 24 October 2020
Orbit: 610 x 640 km, 82.5° (Epoch: 28 November)

Event Time Altitude Azimuth Distance (km) Brightness Sun altitude
Rises 18:20:49 0° 188° (S) 2,915 6.6 -18.1°
Reaches altitude 10° 18:23:02 10° 189° (S) 2,016 5.7 -18.4°
Maximum altitude 18:27:31 89° 108° (ESE) 645 3.0 -19.1°
Drops below altitude 10° 18:32:04 10° 11° (N) 2,044 5.7 -19.8°
Sets 18:34:20 0° 11° (NNE) 2,959 6.5 -20.1°
